SCP
-0 -0 -0 -0 -0 -0 -0 -0 -0 -0 -0 -0 -0 -0 -0 -0 -0 0 -0 0 -0 -0 0 0 0 -0 -0 -0 -0 -0 -0 -0 -0 -0 -0 -0 -0 -0 -0 -0 -0 0 -0 -0 0
-0 -0 -0 -0 -0 -0 -0 -0 -0 -0 -0 -0 -0 -0 -0 -0 -0 -0 -0 0 0 0 0 -0 -0 -0 0 -0 0 -0 0 0 -0 -0 -0 -0 -0 -0 -0 0 0 -0 -0 -0 -0
-0 -0 -0 -0 -0 -0 -0 -0 -0 -0 -0 -0 -0 -0 -0 -0 0 -0 0 -0 -0 -0 -0 0 0 -0 -0 -0 -0 -0 0 -0 0 0 0 -0 -0 -0 -0 0 -0 -0 -0 -0 -0
0 -0 -0 -0 -0 -0 -0 -0 -0 -0 0 0 0 0 0 0 0 0 0 0 -0 -0 0 -0 0 0 0 -0 0 0 0 -0 0 0 0 -0 -0 -0 0 0 -0 -0 -0 -0 -0
-0 -0 -0 -0 -0 -0 -0 -0 -0 -0 0 0 0 0 0 0 0 0 0 0 0 -0 0 0 0 0 0 -0 -0 0 0 0 0 0 -0 0 0 0 -0 0 -0 -0 -0 -0 -0
0 0 0 0 -0 -0 -0 -0 -0 -0 0 0 0 0 0 -0 0 0 0 0 0 -0 0 0 -0 -0 0 -0 -0 0 0 0 0 -0 0 0 0 0 -0 -0 -0 -0 -0 -0 -0
0 0 0 0 0 -0 0 0 0 0 0 0 0 0 0 0 0 0 0 -0 0 -0 -0 -0 -0 -0 -0 -0 0 -0 0 -0 -0 -0 -0 -0 -0 0 -0 -0 -0 -0 -0 -0 -0
0 0 0 0 0 0 0 0 0 0 0 0 0 0 0 0 0 0 0 0 -0 -0 -0 -0 -0 -0 -0 0 0 -0 -0 -0 -0 0 0 -0 -0 -0 -0 -0 -0 -0 -0 -0 -0
0 0 0 0 0 0 0 0 -0 0 0 0 0 0 0 0 0 0 0 0 -0 -0 -0 0 -0 0 -0 0 0 -0 -0 -0 -0 0 0 0 0 -0 -0 -0 -0 -0 -0 -0 -0
0 0 0 0 0 0 0 0 0 0 -0 0 0 0 0 0 0 0 0 0 0 0 0 -0 0 0 -0 -0 -0 -0 -0 0 -0 0 -0 0 0 -0 -0 -0 -0 -0 -0 -0 -0
0 0 0 0 0 -0 0 0 -0 -0 0 0 0 0 0 0 0 0 0 0 0 0 0 -0 0 0 -0 0 0 0 0 0 -0 0 0 -0 -0 0 0 0 -0 -0 -0 -0 -0
0 -0 -0 -0 -0 -0 0 0 0 0 0 0 -0 0 0 0 0 0 0 0 0 -0 0 0 -0 -0 0 0 0 0 0 0 0 0 0 0 -0 -0 0 0 0 -0 -0 -0 -0
-0 -0 -0 -0 -0 -0 -0 0 0 0 0 0 0 0 0 0 0 0 0 0 -0 0 -0 -0 0 0 0 0 0 0 0 0 0 0 0 0 0 0 0 0 0 0 -0 -0 -0
0 0 -0 -0 -0 -0 -0 0 -0 0 0 0 0 0 0 0 0 0 0 0 0 0 -0 -0 -0 0 0 0 -0 -0 0 0 0 0 0 0 -0 0 -0 0 0 0 0 -0 -0
0 0 -0 -0 -0 -0 -0 -0 0 -0 0 0 0 0 0 0 0 0 0 0 0 0 0 0 0 0 0 0 -0 -0 0 0 0 0 0 0 0 0 -0 0 0 0 0 -0 -0
0 0 -0 0 -0 0 0 -0 -0 0 0 0 0 0 0 0 0 0 0 0 -0 0 0 0 0 0 0 0 0 0 0 0 0 0 0 0 0 -0 -0 0 0 0 0 0 -0
0 0 -0 0 0 0 0 -0 0 0 0 0 0 0 0 0 0 0 0 0 0 0 0 0 0 0 0 0 0 0 -0 0 0 0 0 0 0 -0 -0 -0 0 0 0 0 0
0 -0 0 0 0 0 0 -0 0 0 0 0 0 0 0 0 0 0 0 0 0 0 0 0 0 0 0 -0 0 0 -0 0 0 0 0 -0 0 -0 -0 0 0 0 0 0 0
0 0 0 0 0 0 0 -0 0 0 0 0 0 0 0 0 0 0 0 0 0 0 0 0 0 0 0 0 -0 0 -0 -0 0 -0 0 0 -0 0 0 0 0 0 0 0 0
0 0 0 0 0 0 0 -0 0 0 0 0 0 0 0 0 0 0 0 0 0 0 0 0 0 0 -0 0 0 0 0 0 0 0 0 0 0 0 0 0 0 0 0 -0 0
0 0 0 0 0 0 0 0 0 0 0 0 0 0 0 0 0 0 0 0 0 0 0 0 0 0 0 0 0 0 0 0 0 0 -0 0 0 -0 0 -0 0 0 -0 -0 0
0 0 0 0 -0 0 0 0 0 0 0 0 0 0 0 0 0 0 0 0 0 0 0 0 0 0 0 0 0 0 0 0 0 -0 -0 0 0 0 0 0 0 -0 0 -0 0
0 0 0 0 0 0 0 0 0 0 0 -0 0 0 0 0 0 0 0 0 0 0 0 0 0 0 0 0 0 0 0 0 0 0 -0 0 0 0 0 0 0 -0 0 0 0
0 0 0 -0 0 0 0 -0 -0 0 0 0 -0 0 0 0 0 0 0 0 0 0 0 0 0 0 0 0 0 0 0 0 0 0 0 0 0 0 0 0 0 0 0 0 0
0 0 0 0 0 0 0 0 0 0 0 0 -0 0 0 0 0 0 0 0 0 0 0 0 0 0 0 0 0 0 0 0 0 0 0 0 0 0 0 0 0 0 0 0 0
0 0 0 0 0 0 0 0 0 0 0 -0 0 -0 0 0 0 0 0 0 0 0 0 0 0 0 0 0 0 0 0 0 0 0 0 0 0 0 0 0 0 0 0 0 0
0 0 0 0 0 0 0 0 0 -0 -0 0 0 0 0 -0 0 0 0 0 0 0 0 0 0 0 0 0 0 0 0 0 0 0 0 0 0 0 0 0 0 0 0 0 0
Wind_Speed_500mb
35 36 36 37 38 39 39 37 36 37 38 37 39 35 35 34 35 39 51 34 29 34 28 33 42 40 38 34 34 28 24 17 5 29 33 24 28 20 24 35 23 10 47 60 61
38 38 39 40 41 41 41 40 41 38 39 39 38 37 31 34 37 51 54 39 37 34 30 49 55 47 49 42 34 33 3 14 2 22 23 25 35 22 27 28 26 42 54 61 67
42 43 44 44 44 45 46 45 43 44 43 41 38 35 29 24 31 45 37 40 45 39 41 45 46 47 50 39 41 35 14 49 12 13 6 32 35 22 35 24 32 47 64 69 70
48 48 48 47 48 50 49 50 49 50 44 41 36 30 25 12 13 1 13 23 46 52 47 50 53 54 45 44 41 34 23 48 15 8 5 16 36 28 18 36 36 42 62 71 67
51 52 53 52 52 52 54 53 51 49 46 45 37 26 20 23 43 29 16 10 35 61 60 61 62 61 46 40 33 37 34 22 9 11 10 6 7 27 27 32 39 46 60 65 62
53 55 56 57 58 59 57 54 51 45 48 41 33 26 24 39 22 33 23 32 29 62 62 64 59 60 53 45 38 34 39 21 26 24 20 22 14 18 30 33 45 53 58 63 62
55 57 59 59 60 63 60 55 50 45 41 35 27 25 30 51 20 23 35 39 35 56 62 61 54 55 49 37 35 46 25 33 32 31 19 20 21 28 35 38 49 53 56 60 62
60 61 62 63 64 63 59 56 48 44 36 28 15 22 26 14 44 30 31 43 41 48 51 51 54 55 57 37 18 37 43 33 39 35 35 25 33 37 40 51 49 53 55 60 62
60 63 65 65 66 65 49 53 47 39 30 12 7 22 26 24 39 46 41 47 51 48 47 46 52 44 57 36 32 36 35 45 41 46 33 29 30 27 41 55 53 53 55 58 61
61 62 64 64 63 54 52 42 47 28 14 5 13 16 36 23 30 43 49 47 56 51 48 48 49 34 40 39 38 44 47 45 45 31 37 36 38 32 44 44 52 55 56 58 61
66 67 67 63 58 50 53 37 18 8 21 34 20 37 10 19 17 44 56 48 58 57 42 61 41 55 60 55 46 42 42 46 49 28 42 37 40 35 32 34 47 55 58 61 62
59 60 60 58 42 49 39 32 21 24 39 54 75 69 57 21 27 43 63 51 59 53 52 41 56 53 52 55 53 53 49 47 40 29 32 29 30 29 30 36 45 54 59 60 57
58 58 57 50 32 35 22 38 33 31 22 45 66 69 65 59 37 57 80 73 61 60 64 57 42 57 54 53 55 56 54 40 38 38 30 30 33 32 24 34 45 52 55 60 66
60 58 54 46 19 35 20 42 37 23 14 17 20 20 63 51 43 58 80 86 40 66 61 59 55 57 57 59 55 55 53 45 41 40 35 40 32 42 33 36 38 51 55 59 63
58 54 44 39 22 27 44 45 34 9 14 24 19 7 27 62 20 70 77 93 52 49 59 62 51 44 60 55 56 53 43 50 46 39 38 46 34 34 54 49 47 43 59 57 63
52 47 37 24 23 33 44 40 15 15 21 10 12 16 23 57 61 54 74 89 82 52 56 58 52 48 46 50 47 45 38 42 48 39 41 50 42 37 34 39 48 53 53 58 59
50 42 27 23 33 43 39 27 16 21 2 29 30 31 24 33 49 39 61 65 60 60 60 57 64 49 44 46 50 41 41 25 34 36 39 49 49 41 39 42 39 42 58 55 56
48 35 18 20 37 35 30 24 26 41 30 44 42 48 43 43 38 55 55 54 70 61 37 44 49 68 43 57 50 55 52 31 45 38 35 50 57 49 51 33 37 53 60 60 56
48 23 8 33 33 27 29 20 22 30 34 40 54 44 30 39 18 47 54 56 61 67 63 50 63 61 67 49 55 47 53 54 46 47 31 42 59 50 41 54 36 31 59 54 59
41 30 9 42 29 19 22 26 30 31 39 35 41 33 49 46 16 34 53 49 53 69 62 57 37 63 60 50 58 59 46 46 33 46 39 36 34 37 46 34 51 49 42 59 59
35 25 18 39 21 26 16 17 30 33 35 30 42 49 37 42 48 40 36 7 18 24 52 66 51 31 53 57 55 51 44 52 42 37 31 24 24 34 41 45 40 42 68 60 56
29 13 33 36 33 3 15 20 23 30 21 31 32 45 38 35 35 34 36 20 23 29 33 70 27 40 60 56 52 53 58 55 35 48 35 27 7 18 36 30 39 46 52 64 58
34 34 9 29 14 18 21 25 13 24 23 12 18 28 39 37 17 30 15 14 23 22 21 5 32 35 47 48 55 62 61 51 53 38 43 32 13 16 11 8 34 41 43 44 48
25 11 28 27 24 22 24 34 29 17 18 21 11 18 33 34 29 22 20 19 12 17 30 20 33 46 39 50 46 56 60 60 49 39 35 39 28 21 21 19 12 18 22 25 16
19 13 16 14 23 25 25 28 34 30 11 33 4 18 17 17 33 21 26 25 24 7 20 13 31 40 52 37 25 59 59 61 62 48 49 31 38 36 31 26 25 32 24 16 22
18 13 21 41 26 24 25 26 26 21 26 32 18 15 20 23 20 32 29 22 16 23 20 21 25 38 46 48 12 26 40 63 60 57 46 49 30 33 37 22 22 22 19 16 14
21 32 18 19 27 18 24 24 30 30 29 19 28 29 27 16 23 31 38 45 34 30 24 23 19 22 33 41 20 36 42 36 51 48 49 45 40 27 19 18 14 16 15 20 18
Wind_Direction_500mb
358 352 347 342 335 330 326 317 309 302 298 294 291 288 283 281 275 274 257 236 234 221 198 185 187 195 200 210 235 245 263 286 213 10 118 139 111 72 94 130 130 80 138 149 150
356 351 347 343 336 330 326 322 316 308 301 295 287 286 287 287 284 269 254 246 226 217 193 188 192 195 205 220 221 239 242 282 81 175 119 123 110 127 134 146 119 117 131 148 154
353 349 345 340 333 328 326 321 315 310 305 298 288 283 285 295 298 269 246 234 219 210 197 196 195 199 215 222 220 233 199 248 95 22 225 134 124 144 127 161 145 137 150 156 161
355 351 346 342 335 330 325 319 314 313 306 297 286 277 273 254 259 37 242 193 207 202 195 199 201 203 217 218 222 244 244 256 108 114 333 125 141 125 176 139 148 149 160 163 168
356 353 349 346 338 330 323 320 316 311 306 299 282 265 250 233 245 271 237 200 193 191 198 200 205 205 216 223 217 228 265 217 231 210 210 347 133 175 133 140 147 154 165 172 173
354 352 348 347 342 336 326 321 317 310 309 300 276 245 226 247 252 228 232 219 193 188 200 202 210 208 221 231 215 217 246 217 229 212 199 212 176 209 145 158 153 160 170 176 179
354 351 347 347 341 338 330 324 318 313 310 304 272 234 233 235 224 219 206 209 196 193 201 206 209 207 223 235 227 242 236 227 239 237 224 221 215 206 159 167 162 168 171 179 185
354 351 348 346 341 337 331 327 324 315 310 306 250 202 246 258 236 225 205 206 202 199 206 206 208 217 223 243 227 221 235 230 216 210 218 217 212 197 178 169 174 174 176 179 186
353 350 348 346 342 339 335 331 330 315 313 306 130 202 256 230 225 215 205 200 196 198 205 202 208 219 219 238 221 211 222 221 225 204 214 202 246 163 179 173 181 182 181 183 185
354 351 350 348 345 343 344 334 325 316 353 254 247 216 237 231 226 202 198 196 192 192 200 206 211 213 221 213 220 214 214 211 224 181 217 192 236 173 176 186 185 185 184 188 188
351 350 350 352 350 352 360 343 330 237 250 248 203 243 330 196 186 191 185 186 192 195 197 201 203 210 213 217 227 236 214 235 202 185 197 223 203 224 169 181 191 184 188 191 193
349 350 349 355 2 13 20 33 4 316 295 269 258 252 241 227 202 193 184 187 191 197 198 192 217 215 217 215 224 234 243 221 228 211 211 218 240 242 179 184 194 186 192 193 191
350 350 350 356 2 5 356 355 334 322 271 285 242 231 221 220 225 199 191 198 194 195 200 203 211 217 214 217 214 225 229 231 234 219 206 234 245 235 203 181 195 194 197 195 192
351 351 351 359 355 348 341 336 333 322 279 252 199 228 212 204 232 223 199 195 192 205 205 221 219 195 215 217 216 222 221 233 235 235 221 208 233 213 226 186 195 199 195 198 197
348 347 356 359 341 351 330 330 323 289 278 112 125 144 194 194 164 202 197 202 206 206 208 209 216 204 208 212 215 228 222 220 239 247 251 244 228 241 198 206 191 200 197 202 194
346 344 348 342 339 321 328 323 304 235 240 143 117 192 191 206 242 177 191 206 217 213 211 226 209 213 213 214 214 219 231 232 218 231 236 233 236 232 236 214 189 195 205 195 200
346 340 354 3 332 329 329 316 250 242 334 17 355 328 286 211 222 216 188 198 206 214 215 213 227 211 225 210 209 205 210 207 221 217 231 224 233 235 230 223 204 206 196 195 196
345 348 336 348 330 327 325 280 260 276 15 349 329 305 278 269 217 220 194 203 212 213 212 211 213 221 196 216 201 203 212 217 213 217 227 228 228 226 234 251 230 205 201 195 193
344 348 330 333 330 326 299 279 306 359 348 334 323 303 255 229 260 209 212 213 206 218 219 204 224 196 217 211 212 192 218 219 236 217 238 215 220 240 232 219 215 227 203 200 187
347 327 269 337 328 308 272 276 340 353 334 320 300 295 329 343 253 252 215 222 222 210 233 244 220 225 198 205 216 230 205 215 235 245 230 231 228 210 210 221 212 207 213 206 196
346 315 346 336 317 281 296 352 328 326 312 316 306 297 302 311 316 286 247 74 359 279 235 236 246 242 207 202 201 206 218 211 228 233 242 234 227 227 199 207 215 212 209 213 203
329 317 339 346 295 345 335 346 299 294 317 319 304 286 276 298 295 294 312 50 356 305 281 214 244 235 209 198 211 211 216 201 220 220 238 260 200 12 195 193 191 211 211 210 199
330 307 331 350 1 330 341 306 294 303 330 322 304 340 314 296 302 329 302 357 343 317 2 262 223 222 239 190 201 219 207 220 211 235 215 229 212 100 73 197 187 200 201 206 196
314 316 342 309 348 330 342 303 314 323 316 311 344 333 338 304 279 276 303 315 327 337 324 298 250 227 218 198 194 208 215 213 217 218 223 209 217 138 104 131 151 182 187 182 193
315 328 337 304 332 331 303 283 292 315 332 303 156 343 326 304 313 359 339 293 280 48 306 256 242 241 250 250 212 204 214 214 216 219 223 207 209 162 143 140 130 143 130 128 154
307 338 314 296 298 301 295 307 307 313 324 309 307 316 316 291 285 302 297 339 327 343 338 304 264 251 252 250 211 261 240 216 217 218 225 233 220 200 147 158 175 177 187 222 247
294 285 292 284 303 311 297 315 308 303 307 316 312 308 302 318 305 291 261 274 286 290 304 304 274 238 237 236 231 241 235 238 225 210 224 220 231 238 163 161 217 236 225 215 232
Wind_Speed_850mb
35 36 36 37 38 39 39 37 36 37 38 37 39 35 35 34 35 39 51 34 29 34 28 33 42 40 38 34 34 28 24 17 5 29 33 24 28 20 24 35 23 10 47 60 61
38 38 39 40 41 41 41 40 41 38 39 39 38 37 31 34 37 51 54 39 37 34 30 49 55 47 49 42 34 33 3 14 2 22 23 25 35 22 27 28 26 42 54 61 67
42 43 44 44 44 45 46 45 43 44 43 41 38 35 29 24 31 45 37 40 45 39 41 45 46 47 50 39 41 35 14 49 12 13 6 32 35 22 35 24 32 47 64 69 70
48 48 48 47 48 50 49 50 49 50 44 41 36 30 25 12 13 1 13 23 46 52 47 50 53 54 45 44 41 34 23 48 15 8 5 16 36 28 18 36 36 42 62 71 67
51 52 53 52 52 52 54 53 51 49 46 45 37 26 20 23 43 29 16 10 35 61 60 61 62 61 46 40 33 37 34 22 9 11 10 6 7 27 27 32 39 46 60 65 62
53 55 56 57 58 59 57 54 51 45 48 41 33 26 24 39 22 33 23 32 29 62 62 64 59 60 53 45 38 34 39 21 26 24 20 22 14 18 30 33 45 53 58 63 62
55 57 59 59 60 63 60 55 50 45 41 35 27 25 30 51 20 23 35 39 35 56 62 61 54 55 49 37 35 46 25 33 32 31 19 20 21 28 35 38 49 53 56 60 62
60 61 62 63 64 63 59 56 48 44 36 28 15 22 26 14 44 30 31 43 41 48 51 51 54 55 57 37 18 37 43 33 39 35 35 25 33 37 40 51 49 53 55 60 62
60 63 65 65 66 65 49 53 47 39 30 12 7 22 26 24 39 46 41 47 51 48 47 46 52 44 57 36 32 36 35 45 41 46 33 29 30 27 41 55 53 53 55 58 61
61 62 64 64 63 54 52 42 47 28 14 5 13 16 36 23 30 43 49 47 56 51 48 48 49 34 40 39 38 44 47 45 45 31 37 36 38 32 44 44 52 55 56 58 61
66 67 67 63 58 50 53 37 18 8 21 34 20 37 10 19 17 44 56 48 58 57 42 61 41 55 60 55 46 42 42 46 49 28 42 37 40 35 32 34 47 55 58 61 62
59 60 60 58 42 49 39 32 21 24 39 54 75 69 57 21 27 43 63 51 59 53 52 41 56 53 52 55 53 53 49 47 40 29 32 29 30 29 30 36 45 54 59 60 57
58 58 57 50 32 35 22 38 33 31 22 45 66 69 65 59 37 57 80 73 61 60 64 57 42 57 54 53 55 56 54 40 38 38 30 30 33 32 24 34 45 52 55 60 66
60 58 54 46 19 35 20 42 37 23 14 17 20 20 63 51 43 58 80 86 40 66 61 59 55 57 57 59 55 55 53 45 41 40 35 40 32 42 33 36 38 51 55 59 63
58 54 44 39 22 27 44 45 34 9 14 24 19 7 27 62 20 70 77 93 52 49 59 62 51 44 60 55 56 53 43 50 46 39 38 46 34 34 54 49 47 43 59 57 63
52 47 37 24 23 33 44 40 15 15 21 10 12 16 23 57 61 54 74 89 82 52 56 58 52 48 46 50 47 45 38 42 48 39 41 50 42 37 34 39 48 53 53 58 59
50 42 27 23 33 43 39 27 16 21 2 29 30 31 24 33 49 39 61 65 60 60 60 57 64 49 44 46 50 41 41 25 34 36 39 49 49 41 39 42 39 42 58 55 56
48 35 18 20 37 35 30 24 26 41 30 44 42 48 43 43 38 55 55 54 70 61 37 44 49 68 43 57 50 55 52 31 45 38 35 50 57 49 51 33 37 53 60 60 56
48 23 8 33 33 27 29 20 22 30 34 40 54 44 30 39 18 47 54 56 61 67 63 50 63 61 67 49 55 47 53 54 46 47 31 42 59 50 41 54 36 31 59 54 59
41 30 9 42 29 19 22 26 30 31 39 35 41 33 49 46 16 34 53 49 53 69 62 57 37 63 60 50 58 59 46 46 33 46 39 36 34 37 46 34 51 49 42 59 59
35 25 18 39 21 26 16 17 30 33 35 30 42 49 37 42 48 40 36 7 18 24 52 66 51 31 53 57 55 51 44 52 42 37 31 24 24 34 41 45 40 42 68 60 56
29 13 33 36 33 3 15 20 23 30 21 31 32 45 38 35 35 34 36 20 23 29 33 70 27 40 60 56 52 53 58 55 35 48 35 27 7 18 36 30 39 46 52 64 58
34 34 9 29 14 18 21 25 13 24 23 12 18 28 39 37 17 30 15 14 23 22 21 5 32 35 47 48 55 62 61 51 53 38 43 32 13 16 11 8 34 41 43 44 48
25 11 28 27 24 22 24 34 29 17 18 21 11 18 33 34 29 22 20 19 12 17 30 20 33 46 39 50 46 56 60 60 49 39 35 39 28 21 21 19 12 18 22 25 16
19 13 16 14 23 25 25 28 34 30 11 33 4 18 17 17 33 21 26 25 24 7 20 13 31 40 52 37 25 59 59 61 62 48 49 31 38 36 31 26 25 32 24 16 22
18 13 21 41 26 24 25 26 26 21 26 32 18 15 20 23 20 32 29 22 16 23 20 21 25 38 46 48 12 26 40 63 60 57 46 49 30 33 37 22 22 22 19 16 14
21 32 18 19 27 18 24 24 30 30 29 19 28 29 27 16 23 31 38 45 34 30 24 23 19 22 33 41 20 36 42 36 51 48 49 45 40 27 19 18 14 16 15 20 18
Wind_Direction_850mb
358 352 347 342 335 330 326 317 309 302 298 294 291 288 283 281 275 274 257 236 234 221 198 185 187 195 200 210 235 245 263 286 213 10 118 139 111 72 94 130 130 80 138 149 150
356 351 347 343 336 330 326 322 316 308 301 295 287 286 287 287 284 269 254 246 226 217 193 188 192 195 205 220 221 239 242 282 81 175 119 123 110 127 134 146 119 117 131 148 154
353 349 345 340 333 328 326 321 315 310 305 298 288 283 285 295 298 269 246 234 219 210 197 196 195 199 215 222 220 233 199 248 95 22 225 134 124 144 127 161 145 137 150 156 161
355 351 346 342 335 330 325 319 314 313 306 297 286 277 273 254 259 37 242 193 207 202 195 199 201 203 217 218 222 244 244 256 108 114 333 125 141 125 176 139 148 149 160 163 168
356 353 349 346 338 330 323 320 316 311 306 299 282 265 250 233 245 271 237 200 193 191 198 200 205 205 216 223 217 228 265 217 231 210 210 347 133 175 133 140 147 154 165 172 173
354 352 348 347 342 336 326 321 317 310 309 300 276 245 226 247 252 228 232 219 193 188 200 202 210 208 221 231 215 217 246 217 229 212 199 212 176 209 145 158 153 160 170 176 179
354 351 347 347 341 338 330 324 318 313 310 304 272 234 233 235 224 219 206 209 196 193 201 206 209 207 223 235 227 242 236 227 239 237 224 221 215 206 159 167 162 168 171 179 185
354 351 348 346 341 337 331 327 324 315 310 306 250 202 246 258 236 225 205 206 202 199 206 206 208 217 223 243 227 221 235 230 216 210 218 217 212 197 178 169 174 174 176 179 186
353 350 348 346 342 339 335 331 330 315 313 306 130 202 256 230 225 215 205 200 196 198 205 202 208 219 219 238 221 211 222 221 225 204 214 202 246 163 179 173 181 182 181 183 185
354 351 350 348 345 343 344 334 325 316 353 254 247 216 237 231 226 202 198 196 192 192 200 206 211 213 221 213 220 214 214 211 224 181 217 192 236 173 176 186 185 185 184 188 188
351 350 350 352 350 352 360 343 330 237 250 248 203 243 330 196 186 191 185 186 192 195 197 201 203 210 213 217 227 236 214 235 202 185 197 223 203 224 169 181 191 184 188 191 193
349 350 349 355 2 13 20 33 4 316 295 269 258 252 241 227 202 193 184 187 191 197 198 192 217 215 217 215 224 234 243 221 228 211 211 218 240 242 179 184 194 186 192 193 191
350 350 350 356 2 5 356 355 334 322 271 285 242 231 221 220 225 199 191 198 194 195 200 203 211 217 214 217 214 225 229 231 234 219 206 234 245 235 203 181 195 194 197 195 192
351 351 351 359 355 348 341 336 333 322 279 252 199 228 212 204 232 223 199 195 192 205 205 221 219 195 215 217 216 222 221 233 235 235 221 208 233 213 226 186 195 199 195 198 197
348 347 356 359 341 351 330 330 323 289 278 112 125 144 194 194 164 202 197 202 206 206 208 209 216 204 208 212 215 228 222 220 239 247 251 244 228 241 198 206 191 200 197 202 194
346 344 348 342 339 321 328 323 304 235 240 143 117 192 191 206 242 177 191 206 217 213 211 226 209 213 213 214 214 219 231 232 218 231 236 233 236 232 236 214 189 195 205 195 200
346 340 354 3 332 329 329 316 250 242 334 17 355 328 286 211 222 216 188 198 206 214 215 213 227 211 225 210 209 205 210 207 221 217 231 224 233 235 230 223 204 206 196 195 196
345 348 336 348 330 327 325 280 260 276 15 349 329 305 278 269 217 220 194 203 212 213 212 211 213 221 196 216 201 203 212 217 213 217 227 228 228 226 234 251 230 205 201 195 193
344 348 330 333 330 326 299 279 306 359 348 334 323 303 255 229 260 209 212 213 206 218 219 204 224 196 217 211 212 192 218 219 236 217 238 215 220 240 232 219 215 227 203 200 187
347 327 269 337 328 308 272 276 340 353 334 320 300 295 329 343 253 252 215 222 222 210 233 244 220 225 198 205 216 230 205 215 235 245 230 231 228 210 210 221 212 207 213 206 196
346 315 346 336 317 281 296 352 328 326 312 316 306 297 302 311 316 286 247 74 359 279 235 236 246 242 207 202 201 206 218 211 228 233 242 234 227 227 199 207 215 212 209 213 203
329 317 339 346 295 345 335 346 299 294 317 319 304 286 276 298 295 294 312 50 356 305 281 214 244 235 209 198 211 211 216 201 220 220 238 260 200 12 195 193 191 211 211 210 199
330 307 331 350 1 330 341 306 294 303 330 322 304 340 314 296 302 329 302 357 343 317 2 262 223 222 239 190 201 219 207 220 211 235 215 229 212 100 73 197 187 200 201 206 196
314 316 342 309 348 330 342 303 314 323 316 311 344 333 338 304 279 276 303 315 327 337 324 298 250 227 218 198 194 208 215 213 217 218 223 209 217 138 104 131 151 182 187 182 193
315 328 337 304 332 331 303 283 292 315 332 303 156 343 326 304 313 359 339 293 280 48 306 256 242 241 250 250 212 204 214 214 216 219 223 207 209 162 143 140 130 143 130 128 154
307 338 314 296 298 301 295 307 307 313 324 309 307 316 316 291 285 302 297 339 327 343 338 304 264 251 252 250 211 261 240 216 217 218 225 233 220 200 147 158 175 177 187 222 247
294 285 292 284 303 311 297 315 308 303 307 316 312 308 302 318 305 291 261 274 286 290 304 304 274 238 237 236 231 241 235 238 225 210 224 220 231 238 163 161 217 236 225 215 232